Regional Weather Roundup
Issued by NWS

Home | Current Version | Previous Version | Graphics & Text | Print | Product List | Glossary On
Versions: 1 2 3 4 5 6 7 8 9 10 11 12 13 14 15 16 17 18 19 20 21 22 23 24 25 26 27 28 29 30 31 32 33 34 35 36 37 38 39 40 41 42 43 44 45 46 47 48 49 50
000
ASUS43 KTOP 231059
RWRKS

WEATHER ROUNDUP FOR KANSAS
NATIONAL WEATHER SERVICE GOODLAND KS
600 AM CDT TUE AUG 23 2016

NOTE:  "FAIR" INDICATES FEW OR NO CLOUDS BELOW 12,000 FEET WITH NO
SIGNIFICANT WEATHER AND/OR OBSTRUCTIONS TO VISIBILITY.

KSZ001>006-013>018-027>032-041>047-231200-
NORTHWEST KANSAS

CITY           SKY/WX    TMP DP  RH WIND       PRES   REMARKS
GOODLAND       CLEAR     63  59  87 S8        29.84S
HAYS           CLEAR     72  61  68 S18       29.87F
HILL CITY      CLEAR     72  65  78 S10       29.85R
RUSSELL        PTCLDY    72  67  84 S16       29.88F
$$

KSZ061>065-074>080-084>089-231200-
SOUTHWEST KANSAS

CITY           SKY/WX    TMP DP  RH WIND       PRES   REMARKS
DODGE CITY     CLOUDY    70  66  87 S17G26    29.93R
ELKHART          N/A     67  57  70 MISG        N/A
GARDEN CITY    PTCLDY    68  63  84 S13       29.90R
GREAT BEND     PTCLDY    72  63  73 S17G24    29.90F
LIBERAL        CLEAR     70  61  73 SE18      29.95S
$$

KSZ066>073-081>083-090>101-231200-
SOUTHEAST KANSAS

CITY           SKY/WX    TMP DP  RH WIND       PRES   REMARKS
CHANUTE        CLOUDY    72  69  90 S9        30.04S
COFFEYVILLE    CLOUDY    75  71  87 S12       30.05R
HUTCHINSON     CLOUDY    74  70  87 S14       29.95S
MEDICINE LODGE   N/A     72  69  90 SE8       29.96S
NEWTON         CLOUDY    72  70  93 S13       29.98S
PARSONS        CLOUDY    73  69  87 S7        30.06R
WICHITA INTL   CLOUDY    74  71  91 S16       29.97F
WICHITA JABRA  CLOUDY    73  72  96 S15       29.98F
WINFIELD       CLOUDY    74  71  91 S14       30.01S
$$

KSZ007>012-019>026-033>040-048>060-102>105-231200-
NORTHEAST KANSAS

CITY           SKY/WX    TMP DP  RH WIND       PRES   REMARKS
CONCORDIA      CLEAR     69  67  93 S16       29.91F
EMPORIA        MOCLDY    70  68  93 S16       30.00S
LAWRENCE       CLOUDY    68  66  93 SE7       30.03S
MANHATTAN      CLOUDY    73  69  87 S9        29.96S
OLATHE IND     CLOUDY    68  65  90 S10       30.06S
OLATHE EXE     CLOUDY    65  63  93 SE7       30.06S
SALINA         MOCLDY    74  70  87 S14       29.93S
TOPEKA BILLARD CLOUDY    70  66  87 SE6       30.01S
TOPEKA FORBES  CLOUDY    73  68  84 S8        30.01F
$$




USA.gov is the U.S. government's official web portal to all federal, state and local government web resources and services.